Time,TemperatureF,DewpointF,PressureIn,WindDirection,WindDirectionDegrees,WindSpeedMPH,WindSpeedGustMPH,Humidity,HourlyPrecipIn,Conditions,Clouds,dailyrainin,SoftwareType,DateUTC
2013-02-15 00:02:00,43.7,23.2,30.15,WNW,298,5.1,8.5,44,0.00,,,0.00,WSDL version 427,2013-02-15 06:02:00,
2013-02-15 00:07:00,43.7,23.6,30.15,NW,309,3.7,7.6,45,0.00,,,0.00,WSDL version 427,2013-02-15 06:07:00,
2013-02-15 00:12:00,43.5,23.6,30.15,NW,309,3.5,8.5,45,0.00,,,0.00,WSDL version 427,2013-02-15 06:12:00,
2013-02-15 00:17:00,43.4,23.6,30.15,NW,317,4.0,8.5,46,0.00,,,0.00,WSDL version 427,2013-02-15 06:17:00,
2013-02-15 00:22:00,43.3,24.0,30.15,NW,305,3.8,8.5,46,0.00,,,0.00,WSDL version 427,2013-02-15 06:22:00,
2013-02-15 00:27:00,43.2,24.0,30.15,NW,323,3.7,7.8,47,0.00,,,0.00,WSDL version 427,2013-02-15 06:27:00,
2013-02-15 00:32:00,43.2,24.3,30.15,NW,311,5.2,9.6,47,0.00,,,0.00,WSDL version 427,2013-02-15 06:32:00,
2013-02-15 00:37:00,43.0,24.2,30.15,NW,306,5.5,10.5,47,0.00,,,0.00,WSDL version 427,2013-02-15 06:37:00,
2013-02-15 00:42:00,43.0,24.2,30.15,NW,315,4.4,10.5,47,0.00,,,0.00,WSDL version 427,2013-02-15 06:42:00,
2013-02-15 00:47:00,42.8,24.2,30.15,NW,315,3.6,8.5,47,0.00,,,0.00,WSDL version 427,2013-02-15 06:47:00,
2013-02-15 00:52:00,42.7,24.1,30.15,NW,304,4.1,6.7,48,0.00,,,0.00,WSDL version 427,2013-02-15 06:52:00,
2013-02-15 00:57:00,42.5,24.2,30.15,NW,309,4.1,8.5,48,0.00,,,0.00,WSDL version 427,2013-02-15 06:57:00,
2013-02-15 01:02:00,42.4,24.1,30.15,NW,311,5.7,13.2,47,0.00,,,0.00,WSDL version 427,2013-02-15 07:02:00,
2013-02-15 01:07:00,42.4,23.8,30.15,NW,304,3.9,13.2,47,0.00,,,0.00,WSDL version 427,2013-02-15 07:07:00,
2013-02-15 01:12:00,42.3,23.7,30.15,NW,313,4.0,6.5,47,0.00,,,0.00,WSDL version 427,2013-02-15 07:12:00,
2013-02-15 01:17:00,42.1,23.4,30.15,NW,319,2.6,6.5,47,0.00,,,0.00,WSDL version 427,2013-02-15 07:17:00,
2013-02-15 01:22:00,41.9,23.7,30.15,NW,317,1.8,5.6,48,0.00,,,0.00,WSDL version 427,2013-02-15 07:22:00,
2013-02-15 01:27:00,41.7,23.5,30.15,NW,320,2.8,4.0,48,0.00,,,0.00,WSDL version 427,2013-02-15 07:27:00,
2013-02-15 01:32:00,41.7,23.5,30.15,NW,315,1.4,3.6,48,0.00,,,0.00,WSDL version 427,2013-02-15 07:32:00,
2013-02-15 01:37:00,41.5,23.3,30.15,WNW,293,2.0,3.6,48,0.00,,,0.00,WSDL version 427,2013-02-15 07:37:00,
2013-02-15 01:42:00,41.4,23.2,30.15,WNW,295,1.4,4.3,48,0.00,,,0.00,WSDL version 427,2013-02-15 07:42:00,
2013-02-15 01:47:00,41.1,22.9,30.15,WNW,298,0.9,4.3,48,0.00,,,0.00,WSDL version 427,2013-02-15 07:47:00,
2013-02-15 01:52:00,40.9,23.0,30.18,West,278,0.7,4.0,49,0.00,,,0.00,WSDL version 427,2013-02-15 07:52:00,
2013-02-15 01:57:00,40.6,23.0,30.18,WSW,254,1.0,4.7,49,0.00,,,0.00,WSDL version 427,2013-02-15 07:57:00,
2013-02-15 02:02:00,40.5,22.8,30.18,WNW,295,0.4,5.4,49,0.00,,,0.00,WSDL version 427,2013-02-15 08:02:00,
2013-02-15 02:07:00,40.2,22.6,30.15,WNW,283,2.6,5.4,49,0.00,,,0.00,WSDL version 427,2013-02-15 08:07:00,
2013-02-15 02:12:00,40.0,22.7,30.15,WNW,303,2.6,4.9,50,0.00,,,0.00,WSDL version 427,2013-02-15 08:12:00,
2013-02-15 02:17:00,39.8,22.7,30.15,WNW,288,3.2,5.6,50,0.00,,,0.00,WSDL version 427,2013-02-15 08:17:00,
2013-02-15 02:22:00,39.6,22.5,30.15,NW,313,3.3,6.7,50,0.00,,,0.00,WSDL version 427,2013-02-15 08:22:00,
2013-02-15 02:27:00,39.4,22.7,30.15,WNW,290,5.5,10.7,51,0.00,,,0.00,WSDL version 427,2013-02-15 08:27:00,
2013-02-15 02:32:00,39.3,22.7,30.15,NW,315,4.1,10.7,51,0.00,,,0.00,WSDL version 427,2013-02-15 08:32:00,
2013-02-15 02:37:00,39.1,22.5,30.18,NW,309,5.3,9.4,51,0.00,,,0.00,WSDL version 427,2013-02-15 08:37:00,
2013-02-15 02:42:00,39.0,22.4,30.18,WNW,295,6.1,11.0,51,0.00,,,0.00,WSDL version 427,2013-02-15 08:42:00,
2013-02-15 02:47:00,38.8,22.3,30.18,WNW,298,4.6,11.0,51,0.00,,,0.00,WSDL version 427,2013-02-15 08:47:00,
2013-02-15 02:52:00,38.7,22.1,30.15,NW,321,7.5,14.1,51,0.00,,,0.00,WSDL version 427,2013-02-15 08:52:00,
2013-02-15 02:57:00,38.6,21.6,30.15,NW,308,6.2,14.1,50,0.00,,,0.00,WSDL version 427,2013-02-15 08:57:00,
2013-02-15 03:02:00,38.4,21.4,30.15,NW,321,6.3,13.2,50,0.00,,,0.00,WSDL version 427,2013-02-15 09:02:00,
2013-02-15 03:07:00,38.2,21.2,30.18,WNW,295,6.2,10.1,50,0.00,,,0.00,WSDL version 427,2013-02-15 09:07:00,
2013-02-15 03:12:00,38.1,21.1,30.18,NW,313,5.7,9.6,50,0.00,,,0.00,WSDL version 427,2013-02-15 09:12:00,
2013-02-15 03:17:00,37.9,20.9,30.18,NW,307,7.2,11.0,50,0.00,,,0.00,WSDL version 427,2013-02-15 09:17:00,
2013-02-15 03:22:00,37.6,20.7,30.15,NNW,342,5.1,11.0,50,0.00,,,0.00,WSDL version 427,2013-02-15 09:22:00,
2013-02-15 03:27:00,37.4,20.5,30.15,NW,320,6.8,15.7,50,0.00,,,0.00,WSDL version 427,2013-02-15 09:27:00,
2013-02-15 03:32:00,37.3,20.4,30.15,NW,306,8.2,15.7,50,0.00,,,0.00,WSDL version 427,2013-02-15 09:32:00,
2013-02-15 03:37:00,37.1,20.2,30.18,NW,308,6.6,15.4,50,0.00,,,0.00,WSDL version 427,2013-02-15 09:37:00,
2013-02-15 03:42:00,37.0,20.1,30.18,NW,315,6.4,12.3,50,0.00,,,0.00,WSDL version 427,2013-02-15 09:42:00,
2013-02-15 03:47:00,36.8,19.9,30.18,NW,308,5.1,12.3,50,0.00,,,0.00,WSDL version 427,2013-02-15 09:47:00,
2013-02-15 03:52:00,36.6,19.8,30.18,NW,311,3.6,8.5,50,0.00,,,0.00,WSDL version 427,2013-02-15 09:52:00,
2013-02-15 03:57:00,36.5,19.6,30.18,WNW,303,3.4,9.4,50,0.00,,,0.00,WSDL version 427,2013-02-15 09:57:00,
2013-02-15 04:02:00,36.2,19.4,30.18,NW,325,4.9,9.4,50,0.00,,,0.00,WSDL version 427,2013-02-15 10:02:00,
2013-02-15 04:07:00,36.1,19.2,30.18,WNW,301,3.6,7.8,50,0.00,,,0.00,WSDL version 427,2013-02-15 10:07:00,
2013-02-15 04:12:00,35.8,19.0,30.18,NW,311,5.3,7.8,50,0.00,,,0.00,WSDL version 427,2013-02-15 10:12:00,
2013-02-15 04:17:00,35.6,19.3,30.18,WNW,299,6.0,9.8,51,0.00,,,0.00,WSDL version 427,2013-02-15 10:17:00,
2013-02-15 04:22:00,35.5,19.5,30.18,NW,317,7.8,10.7,52,0.00,,,0.00,WSDL version 427,2013-02-15 10:22:00,
2013-02-15 04:27:00,35.4,19.5,30.18,WNW,303,7.1,12.3,52,0.00,,,0.00,WSDL version 427,2013-02-15 10:27:00,
2013-02-15 04:32:00,35.2,19.4,30.18,WNW,290,5.8,12.8,52,0.00,,,0.00,WSDL version 427,2013-02-15 10:32:00,
2013-02-15 04:37:00,35.1,19.3,30.21,NW,305,6.6,12.8,53,0.00,,,0.00,WSDL version 427,2013-02-15 10:37:00,
2013-02-15 04:42:00,34.9,19.2,30.21,NW,315,6.1,10.5,53,0.00,,,0.00,WSDL version 427,2013-02-15 10:42:00,
2013-02-15 04:47:00,34.8,19.3,30.21,NW,317,7.4,10.1,53,0.00,,,0.00,WSDL version 427,2013-02-15 10:47:00,
2013-02-15 04:52:00,34.6,19.2,30.24,NW,321,5.5,10.1,53,0.00,,,0.00,WSDL version 427,2013-02-15 10:52:00,
2013-02-15 04:57:00,34.5,19.2,30.24,NNW,329,5.9,11.0,53,0.00,,,0.00,WSDL version 427,2013-02-15 10:57:00,
2013-02-15 05:02:00,34.3,19.4,30.24,NW,317,6.2,11.0,54,0.00,,,0.00,WSDL version 427,2013-02-15 11:02:00,
2013-02-15 05:07:00,34.3,19.4,30.24,WNW,297,3.6,10.5,54,0.00,,,0.00,WSDL version 427,2013-02-15 11:07:00,
2013-02-15 05:12:00,34.2,19.3,30.24,WNW,303,4.2,10.5,54,0.00,,,0.00,WSDL version 427,2013-02-15 11:12:00,
2013-02-15 05:17:00,34.0,19.1,30.24,NW,304,4.1,8.7,54,0.00,,,0.00,WSDL version 427,2013-02-15 11:17:00,
2013-02-15 05:22:00,33.8,19.1,30.24,NW,315,6.6,9.6,55,0.00,,,0.00,WSDL version 427,2013-02-15 11:22:00,
2013-02-15 05:27:00,33.7,19.3,30.24,NW,311,7.4,13.2,56,0.00,,,0.00,WSDL version 427,2013-02-15 11:27:00,
2013-02-15 05:32:00,33.5,19.5,30.24,NW,305,7.8,14.8,56,0.00,,,0.00,WSDL version 427,2013-02-15 11:32:00,
2013-02-15 05:37:00,33.4,19.9,30.24,NW,315,8.2,14.8,58,0.00,,,0.00,WSDL version 427,2013-02-15 11:37:00,
2013-02-15 05:42:00,33.3,20.2,30.24,NW,320,8.8,15.2,59,0.00,,,0.00,WSDL version 427,2013-02-15 11:42:00,
2013-02-15 05:47:00,33.3,20.4,30.24,NW,313,9.3,15.2,59,0.00,,,0.00,WSDL version 427,2013-02-15 11:47:00,
2013-02-15 05:52:00,33.2,20.4,30.24,NW,318,7.4,15.4,59,0.00,,,0.00,WSDL version 427,2013-02-15 11:52:00,
2013-02-15 05:57:00,33.1,20.2,30.24,NW,315,5.5,15.4,58,0.00,,,0.00,WSDL version 427,2013-02-15 11:57:00,
2013-02-15 06:02:00,32.9,20.1,30.24,WNW,302,6.6,9.2,59,0.00,,,0.00,WSDL version 427,2013-02-15 12:02:00,
2013-02-15 06:07:00,32.7,19.8,30.24,NW,313,6.3,9.6,59,0.00,,,0.00,WSDL version 427,2013-02-15 12:07:00,
2013-02-15 06:12:00,32.6,19.9,30.24,NW,313,7.0,12.8,59,0.00,,,0.00,WSDL version 427,2013-02-15 12:12:00,
2013-02-15 06:17:00,32.5,20.1,30.24,NW,319,7.2,12.8,60,0.00,,,0.00,WSDL version 427,2013-02-15 12:17:00,
2013-02-15 06:22:00,32.3,20.2,30.24,WNW,298,6.2,12.1,60,0.00,,,0.00,WSDL version 427,2013-02-15 12:22:00,
2013-02-15 06:27:00,32.2,20.1,30.24,NW,313,4.6,10.5,61,0.00,,,0.00,WSDL version 427,2013-02-15 12:27:00,
2013-02-15 06:32:00,32.2,20.3,30.24,WNW,302,5.9,10.7,62,0.00,,,0.00,WSDL version 427,2013-02-15 12:32:00,
2013-02-15 06:37:00,32.2,20.3,30.21,NW,308,4.6,10.7,62,0.00,,,0.00,WSDL version 427,2013-02-15 12:37:00,
2013-02-15 06:42:00,32.2,20.6,30.21,NW,319,4.6,7.8,62,0.00,,,0.00,WSDL version 427,2013-02-15 12:42:00,
2013-02-15 06:47:00,32.2,20.9,30.21,NW,309,6.3,9.8,63,0.00,,,0.00,WSDL version 427,2013-02-15 12:47:00,
2013-02-15 06:52:00,32.2,20.9,30.24,NW,306,6.8,11.4,63,0.00,,,0.00,WSDL version 427,2013-02-15 12:52:00,
2013-02-15 06:57:00,32.2,21.0,30.24,WNW,303,5.1,11.4,63,0.00,,,0.00,WSDL version 427,2013-02-15 12:57:00,
2013-02-15 07:02:00,32.2,21.1,30.24,NW,320,4.3,10.5,63,0.00,,,0.00,WSDL version 427,2013-02-15 13:02:00,
2013-02-15 07:07:00,32.2,21.2,30.24,NW,307,5.7,9.6,64,0.00,,,0.00,WSDL version 427,2013-02-15 13:07:00,
2013-02-15 07:14:00,32.2,21.7,30.24,NNW,330,5.6,9.8,65,0.00,,,0.00,WSDL version 427,2013-02-15 13:14:00,
2013-02-15 07:19:00,32.2,21.7,30.24,North,360,6.8,10.5,65,0.00,,,0.00,WSDL version 427,2013-02-15 13:19:00,
2013-02-15 07:24:00,32.2,21.7,30.24,NW,308,5.1,10.5,65,0.00,,,0.00,WSDL version 427,2013-02-15 13:24:00,
2013-02-15 07:29:00,32.2,21.7,30.24,NNW,338,3.7,7.4,65,0.00,,,0.00,WSDL version 427,2013-02-15 13:29:00,
2013-02-15 07:34:00,32.4,22.3,30.24,NW,315,5.9,8.1,66,0.00,,,0.00,WSDL version 427,2013-02-15 13:34:00,
2013-02-15 07:39:00,32.4,22.3,30.27,NNW,330,4.9,8.1,66,0.00,,,0.00,WSDL version 427,2013-02-15 13:39:00,
2013-02-15 07:44:00,32.4,22.3,30.27,NW,323,5.0,7.4,66,0.00,,,0.00,WSDL version 427,2013-02-15 13:44:00,
2013-02-15 07:49:00,32.5,22.8,30.27,NNW,330,7.5,10.3,67,0.00,,,0.00,WSDL version 427,2013-02-15 13:49:00,
2013-02-15 07:54:00,32.5,22.8,30.27,NNW,338,5.1,10.3,67,0.00,,,0.00,WSDL version 427,2013-02-15 13:54:00,
2013-02-15 07:59:00,32.5,23.2,30.27,NNW,330,5.7,8.5,68,0.00,,,0.00,WSDL version 427,2013-02-15 13:59:00,
2013-02-15 08:04:00,32.7,23.3,30.27,NNW,338,6.6,10.3,68,0.00,,,0.00,WSDL version 427,2013-02-15 14:04:00,
2013-02-15 08:09:00,32.7,23.3,30.27,NW,323,7.3,10.3,68,0.00,,,0.00,WSDL version 427,2013-02-15 14:09:00,
2013-02-15 08:14:00,33.1,23.3,30.27,North,8,5.4,9.8,67,0.00,,,0.00,WSDL version 427,2013-02-15 14:14:00,